User: anonymous   Login
Location: Caltech
(34.1382°N, 118.1253°W)
Time: 22:39:19
(UTC-07:00)
Language:

Cosmos 1697 Rocket - Orbit

View from above orbital plane
View from above orbital plane
View from above satellite
View from above satellite

Ground track
Ground track

The orbit data is extracted from the following two-line orbital elements,

1 16182U 85097B   17179.56002499 +.00000052 +00000-0 +50312-4 0  9999
2 16182 071.0012 344.1387 0005880 045.6476 352.2388 14.16215609637556
Epoch (UTC): 28 June 2017 13:26:26
Eccentricity: 0.0005880
inclination: 71.0012°
perigee height: 834 km
apogee height: 842 km
right ascension of ascending node: 344.1387°
argument of perigee: 45.6476°
revolutions per day: 14.16215609
mean anomaly at epoch: 352.2388°
orbit number at epoch: 63755

The dashed part of the orbit path shows where the satellite is in the earth's shadow,  

DLR